Time,TemperatureF,DewpointF,PressureIn,WindDirection,WindDirectionDegrees,WindSpeedMPH,WindSpeedGustMPH,Humidity,HourlyPrecipIn,Conditions,Clouds,dailyrainin,SoftwareType,DateUTC
2013-02-20 00:00:00,42.5,24.1,29.73,SSW,203,3.1,6.0,48,0.00,,,0.00,WUHU216HW,2013-02-20 07:00:00,
2013-02-20 00:05:00,42.8,23.9,29.73,SW,225,3.8,6.0,47,0.00,,,0.00,WUHU216HW,2013-02-20 07:05:00,
2013-02-20 00:10:00,42.8,23.4,29.73,SW,225,5.4,5.4,46,0.00,,,0.00,WUHU216HW,2013-02-20 07:10:00,
2013-02-20 00:15:00,43.0,23.1,29.73,WSW,248,3.6,6.3,45,0.00,,,0.00,WUHU216HW,2013-02-20 07:15:00,
2013-02-20 00:20:00,43.0,22.5,29.73,SW,225,4.7,6.3,44,0.00,,,0.00,WUHU216HW,2013-02-20 07:20:00,
2013-02-20 00:25:00,43.0,22.0,29.73,SW,225,2.7,6.3,43,0.00,,,0.00,WUHU216HW,2013-02-20 07:25:00,
2013-02-20 00:30:00,43.0,21.4,29.73,WSW,248,5.4,8.1,42,0.00,,,0.00,WUHU216HW,2013-02-20 07:30:00,
2013-02-20 00:35:00,43.0,21.4,29.73,West,270,4.0,8.1,42,0.00,,,0.00,WUHU216HW,2013-02-20 07:35:00,
2013-02-20 00:40:00,42.8,20.7,29.73,South,180,3.6,6.9,41,0.00,,,0.00,WUHU216HW,2013-02-20 07:40:00,
2013-02-20 00:45:00,42.7,20.5,29.73,WSW,248,5.6,6.7,41,0.00,,,0.00,WUHU216HW,2013-02-20 07:45:00,
2013-02-20 00:50:00,42.7,20.0,29.72,West,270,4.5,8.1,40,0.00,,,0.00,WUHU216HW,2013-02-20 07:50:00,
2013-02-20 00:55:00,42.5,20.3,29.73,WSW,248,5.4,8.1,41,0.00,,,0.00,WUHU216HW,2013-02-20 07:55:00,
2013-02-20 01:00:00,42.1,20.1,29.73,WSW,248,5.4,6.3,41,0.00,,,0.00,WUHU216HW,2013-02-20 08:00:00,
2013-02-20 01:05:00,41.9,19.9,29.72,WSW,248,2.9,6.3,41,0.00,,,0.00,WUHU216HW,2013-02-20 08:05:00,
2013-02-20 01:10:00,41.8,19.7,29.72,SW,225,1.3,5.4,41,0.00,,,0.00,WUHU216HW,2013-02-20 08:10:00,
2013-02-20 01:15:00,41.6,19.5,29.72,WSW,248,1.8,4.5,41,0.00,,,0.00,WUHU216HW,2013-02-20 08:15:00,
2013-02-20 01:20:00,41.4,19.4,29.72,West,270,6.9,6.9,41,0.00,,,0.00,WUHU216HW,2013-02-20 08:20:00,
2013-02-20 01:25:00,41.4,19.4,29.72,North,0,0.2,6.9,41,0.00,,,0.00,WUHU216HW,2013-02-20 08:25:00,
2013-02-20 01:30:00,41.4,19.9,29.72,ESE,113,3.4,6.9,42,0.00,,,0.00,WUHU216HW,2013-02-20 08:30:00,
2013-02-20 01:35:00,41.6,20.1,29.72,ESE,113,1.8,6.5,42,0.00,,,0.00,WUHU216HW,2013-02-20 08:35:00,
2013-02-20 01:40:00,41.9,19.9,29.71,WSW,248,1.1,4.7,41,0.00,,,0.00,WUHU216HW,2013-02-20 08:40:00,
2013-02-20 01:45:00,41.9,19.9,29.71,WNW,293,2.9,5.1,41,0.00,,,0.00,WUHU216HW,2013-02-20 08:45:00,
2013-02-20 01:50:00,41.9,20.4,29.70,SW,225,1.3,5.1,42,0.00,,,0.00,WUHU216HW,2013-02-20 08:50:00,
2013-02-20 01:55:00,41.8,19.7,29.71,WSW,248,0.9,5.1,41,0.00,,,0.00,WUHU216HW,2013-02-20 08:55:00,
2013-02-20 02:00:00,41.6,19.5,29.70,WSW,248,4.7,5.1,41,0.00,,,0.00,WUHU216HW,2013-02-20 09:00:00,
2013-02-20 02:05:00,41.4,19.4,29.70,WSW,248,2.5,4.7,41,0.00,,,0.00,WUHU216HW,2013-02-20 09:05:00,
2013-02-20 02:10:00,41.2,19.3,29.70,WSW,248,3.6,4.0,41,0.00,,,0.00,WUHU216HW,2013-02-20 09:10:00,
2013-02-20 02:15:00,41.0,19.6,29.70,SW,225,1.6,3.8,42,0.00,,,0.00,WUHU216HW,2013-02-20 09:15:00,
2013-02-20 02:20:00,40.9,19.5,29.70,SSE,158,0.4,3.4,42,0.00,,,0.00,WUHU216HW,2013-02-20 09:20:00,
2013-02-20 02:25:00,40.7,19.3,29.70,SE,135,0.2,2.7,42,0.00,,,0.00,WUHU216HW,2013-02-20 09:25:00,
2013-02-20 02:30:00,40.1,18.8,29.69,WSW,248,0.0,1.1,42,0.00,,,0.00,WUHU216HW,2013-02-20 09:30:00,
2013-02-20 02:35:00,39.8,19.0,29.70,WNW,293,0.2,1.1,43,0.00,,,0.00,WUHU216HW,2013-02-20 09:35:00,
2013-02-20 02:40:00,39.4,18.6,29.70,WNW,293,0.4,1.1,43,0.00,,,0.00,WUHU216HW,2013-02-20 09:40:00,
2013-02-20 02:45:00,39.2,19.0,29.70,ENE,68,1.6,1.8,44,0.00,,,0.00,WUHU216HW,2013-02-20 09:45:00,
2013-02-20 02:50:00,39.2,19.0,29.69,NE,45,0.0,2.0,44,0.00,,,0.00,WUHU216HW,2013-02-20 09:50:00,
2013-02-20 02:55:00,39.1,18.8,29.69,SE,135,0.7,2.0,44,0.00,,,0.00,WUHU216HW,2013-02-20 09:55:00,
2013-02-20 03:00:00,38.9,19.2,29.69,ENE,68,0.0,0.9,45,0.00,,,0.00,WUHU216HW,2013-02-20 10:00:00,
2013-02-20 03:05:00,38.9,19.2,29.69,SE,135,1.6,1.8,45,0.00,,,0.00,WUHU216HW,2013-02-20 10:05:00,
2013-02-20 03:10:00,39.1,19.4,29.69,ESE,113,1.1,2.7,45,0.00,,,0.00,WUHU216HW,2013-02-20 10:10:00,
2013-02-20 03:15:00,39.2,19.5,29.69,SE,135,1.1,3.1,45,0.00,,,0.00,WUHU216HW,2013-02-20 10:15:00,
2013-02-20 03:20:00,39.2,19.5,29.69,SE,135,2.5,3.1,45,0.00,,,0.00,WUHU216HW,2013-02-20 10:20:00,
2013-02-20 03:25:00,39.6,20.3,29.69,SE,135,2.2,3.8,46,0.00,,,0.00,WUHU216HW,2013-02-20 10:25:00,
2013-02-20 03:30:00,39.8,20.5,29.69,ESE,113,1.1,3.8,46,0.00,,,0.00,WUHU216HW,2013-02-20 10:30:00,
2013-02-20 03:35:00,39.6,20.3,29.69,SE,135,0.4,3.1,46,0.00,,,0.00,WUHU216HW,2013-02-20 10:35:00,
2013-02-20 03:40:00,39.2,19.5,29.69,SW,225,0.0,2.2,45,0.00,,,0.00,WUHU216HW,2013-02-20 10:40:00,
2013-02-20 03:45:00,38.7,19.5,29.69,WNW,293,0.0,1.1,46,0.00,,,0.00,WUHU216HW,2013-02-20 10:45:00,
2013-02-20 03:50:00,38.3,19.3,29.69,NW,315,0.0,1.1,46,0.00,,,0.00,WUHU216HW,2013-02-20 10:50:00,
2013-02-20 03:55:00,38.0,19.4,29.69,WSW,248,2.5,3.1,47,0.00,,,0.00,WUHU216HW,2013-02-20 10:55:00,
2013-02-20 04:00:00,38.2,20.2,29.69,WNW,293,0.7,3.8,48,0.00,,,0.00,WUHU216HW,2013-02-20 11:00:00,
2013-02-20 04:05:00,38.2,20.6,29.69,WNW,293,1.1,3.8,49,0.00,,,0.00,WUHU216HW,2013-02-20 11:05:00,
2013-02-20 04:10:00,38.5,21.5,29.69,WSW,248,3.4,4.3,50,0.00,,,0.00,WUHU216HW,2013-02-20 11:10:00,
2013-02-20 04:15:00,38.7,21.7,29.69,WSW,248,1.1,4.3,50,0.00,,,0.00,WUHU216HW,2013-02-20 11:15:00,
2013-02-20 04:20:00,38.9,21.8,29.69,West,270,1.3,4.5,50,0.00,,,0.00,WUHU216HW,2013-02-20 11:20:00,
2013-02-20 04:25:00,38.9,23.6,29.69,WSW,248,3.4,6.0,54,0.00,,,0.00,WUHU216HW,2013-02-20 11:25:00,
2013-02-20 04:30:00,38.9,23.9,29.69,SW,225,4.3,7.2,55,0.00,,,0.00,WUHU216HW,2013-02-20 11:30:00,
2013-02-20 04:35:00,38.9,24.4,29.69,WSW,248,3.6,7.2,56,0.00,,,0.00,WUHU216HW,2013-02-20 11:35:00,
2013-02-20 04:40:00,38.9,24.8,29.68,West,270,6.9,6.9,57,0.00,,,0.00,WUHU216HW,2013-02-20 11:40:00,
2013-02-20 04:45:00,38.7,25.6,29.69,South,180,3.8,6.9,59,0.00,,,0.00,WUHU216HW,2013-02-20 11:45:00,
2013-02-20 04:50:00,38.7,26.4,29.68,SW,225,2.5,6.9,61,0.00,,,0.00,WUHU216HW,2013-02-20 11:50:00,
2013-02-20 04:55:00,38.5,26.6,29.69,ESE,113,6.3,6.3,62,0.00,,,0.00,WUHU216HW,2013-02-20 11:55:00,
2013-02-20 05:00:00,38.5,26.9,29.68,West,270,5.6,6.9,63,0.00,,,0.00,WUHU216HW,2013-02-20 12:00:00,
2013-02-20 05:05:00,38.5,26.9,29.69,SW,225,4.9,7.2,63,0.00,,,0.00,WUHU216HW,2013-02-20 12:05:00,
2013-02-20 05:10:00,38.5,26.9,29.69,West,270,4.9,7.2,63,0.00,,,0.00,WUHU216HW,2013-02-20 12:10:00,
2013-02-20 05:15:00,38.5,26.9,29.69,WNW,293,5.6,6.9,63,0.00,,,0.00,WUHU216HW,2013-02-20 12:15:00,
2013-02-20 05:20:00,38.5,26.9,29.69,West,270,4.7,12.5,63,0.00,,,0.00,WUHU216HW,2013-02-20 12:20:00,
2013-02-20 05:25:00,38.5,26.6,29.69,WNW,293,1.8,12.5,62,0.00,,,0.00,WUHU216HW,2013-02-20 12:25:00,
2013-02-20 05:30:00,38.5,26.2,29.69,West,270,3.4,6.0,61,0.00,,,0.00,WUHU216HW,2013-02-20 12:30:00,
2013-02-20 05:35:00,38.5,26.2,29.69,WSW,248,2.0,6.9,61,0.00,,,0.00,WUHU216HW,2013-02-20 12:35:00,
2013-02-20 05:40:00,38.5,26.2,29.69,WSW,248,5.8,7.4,61,0.00,,,0.00,WUHU216HW,2013-02-20 12:40:00,
2013-02-20 05:45:00,38.3,26.4,29.69,WNW,293,4.0,7.4,62,0.00,,,0.00,WUHU216HW,2013-02-20 12:45:00,
2013-02-20 05:50:00,38.3,26.4,29.69,WSW,248,2.2,8.5,62,0.00,,,0.00,WUHU216HW,2013-02-20 12:50:00,
2013-02-20 05:55:00,38.2,26.3,29.69,SW,225,0.7,8.5,62,0.00,,,0.00,WUHU216HW,2013-02-20 12:55:00,
2013-02-20 06:00:00,38.2,26.3,29.69,West,270,3.4,6.0,62,0.00,,,0.00,WUHU216HW,2013-02-20 13:00:00,
2013-02-20 06:05:00,38.0,26.1,29.69,WSW,248,2.7,6.0,62,0.00,,,0.00,WUHU216HW,2013-02-20 13:05:00,
2013-02-20 06:10:00,38.0,26.1,29.69,SW,225,1.6,6.3,62,0.00,,,0.00,WUHU216HW,2013-02-20 13:10:00,
2013-02-20 06:15:00,38.0,25.8,29.69,SSE,158,0.7,6.3,61,0.00,,,0.00,WUHU216HW,2013-02-20 13:15:00,
2013-02-20 06:20:00,38.0,25.8,29.70,West,270,2.7,4.9,61,0.00,,,0.00,WUHU216HW,2013-02-20 13:20:00,
2013-02-20 06:25:00,38.0,25.8,29.69,South,180,0.2,3.4,61,0.00,,,0.00,WUHU216HW,2013-02-20 13:25:00,
2013-02-20 06:30:00,38.0,25.8,29.69,WSW,248,1.8,3.4,61,0.00,,,0.00,WUHU216HW,2013-02-20 13:30:00,
2013-02-20 06:35:00,38.0,25.8,29.69,ESE,113,0.4,1.8,61,0.00,,,0.00,WUHU216HW,2013-02-20 13:35:00,
2013-02-20 06:40:00,37.8,25.9,29.69,SSW,203,1.6,2.7,62,0.00,,,0.00,WUHU216HW,2013-02-20 13:40:00,
2013-02-20 06:45:00,37.8,26.3,29.69,SE,135,2.5,4.0,63,0.00,,,0.00,WUHU216HW,2013-02-20 13:45:00,
2013-02-20 06:50:00,38.0,26.5,29.69,ESE,113,2.5,8.5,63,0.00,,,0.00,WUHU216HW,2013-02-20 13:50:00,
2013-02-20 06:56:00,38.0,26.5,29.70,WSW,248,1.1,8.5,63,0.00,,,0.00,WUHU216HW,2013-02-20 13:56:00,
2013-02-20 07:01:00,37.8,26.3,29.70,West,270,0.4,3.1,63,0.00,,,0.00,WUHU216HW,2013-02-20 14:01:00,
2013-02-20 07:06:00,37.8,26.3,29.70,ESE,113,1.8,6.5,63,0.00,,,0.00,WUHU216HW,2013-02-20 14:06:00,
2013-02-20 07:11:00,37.8,26.3,29.70,ESE,113,0.9,6.5,63,0.00,,,0.00,WUHU216HW,2013-02-20 14:11:00,
2013-02-20 07:15:00,38.0,26.5,29.70,West,270,2.0,4.9,63,0.00,,,0.00,WUHU216HW,2013-02-20 14:15:00,
2013-02-20 07:20:00,38.0,26.5,29.70,SW,225,3.8,4.5,63,0.00,,,0.00,WUHU216HW,2013-02-20 14:20:00,
2013-02-20 07:25:00,38.2,26.7,29.70,SE,135,1.8,4.7,63,0.00,,,0.00,WUHU216HW,2013-02-20 14:25:00,
2013-02-20 07:30:00,38.3,26.8,29.70,WSW,248,3.4,5.1,63,0.00,,,0.00,WUHU216HW,2013-02-20 14:30:00,
2013-02-20 07:35:00,38.5,26.6,29.70,ESE,113,0.9,5.1,62,0.00,,,0.00,WUHU216HW,2013-02-20 14:35:00,
2013-02-20 07:40:00,38.7,27.1,29.70,SSE,158,6.0,6.3,63,0.00,,,0.00,WUHU216HW,2013-02-20 14:40:00,
2013-02-20 07:45:00,38.9,27.6,29.70,SSE,158,1.8,6.5,64,0.00,,,0.00,WUHU216HW,2013-02-20 14:45:00,
2013-02-20 07:50:00,38.9,27.3,29.70,SW,225,1.1,6.5,63,0.00,,,0.00,WUHU216HW,2013-02-20 14:50:00,
2013-02-20 07:55:00,39.1,27.5,29.70,WSW,248,2.5,4.7,63,0.00,,,0.00,WUHU216HW,2013-02-20 14:55:00,
2013-02-20 08:00:00,38.9,27.6,29.70,WSW,248,3.6,4.5,64,0.00,,,0.00,WUHU216HW,2013-02-20 15:00:00,
2013-02-20 08:05:00,38.9,27.6,29.70,WNW,293,7.6,7.6,64,0.00,,,0.00,WUHU216HW,2013-02-20 15:05:00,
2013-02-20 08:10:00,38.7,26.7,29.70,WSW,248,7.2,10.5,62,0.00,,,0.00,WUHU216HW,2013-02-20 15:10:00,
2013-02-20 08:15:00,38.5,26.9,29.70,SW,225,8.5,10.5,63,0.00,,,0.00,WUHU216HW,2013-02-20 15:15:00,
2013-02-20 08:20:00,38.5,26.9,29.70,West,270,6.9,10.1,63,0.00,,,0.00,WUHU216HW,2013-02-20 15:20:00,
2013-02-20 08:25:00,38.5,26.9,29.71,WNW,293,4.5,9.2,63,0.00,,,0.00,WUHU216HW,2013-02-20 15:25:00,
2013-02-20 08:30:00,38.5,26.9,29.71,WNW,293,5.6,9.2,63,0.00,,,0.00,WUHU216HW,2013-02-20 15:30:00,
2013-02-20 08:35:00,38.7,26.7,29.71,West,270,7.6,9.2,62,0.00,,,0.00,WUHU216HW,2013-02-20 15:35:00,
2013-02-20 08:40:00,38.5,26.6,29.71,West,270,6.0,8.5,62,0.00,,,0.00,WUHU216HW,2013-02-20 15:40:00,
2013-02-20 08:45:00,38.5,26.6,29.71,NW,315,4.7,7.6,62,0.00,,,0.00,WUHU216HW,2013-02-20 15:45:00,
2013-02-20 08:50:00,38.7,26.7,29.71,West,270,3.4,7.6,62,0.00,,,0.00,WUHU216HW,2013-02-20 15:50:00,
2013-02-20 08:55:00,38.9,26.9,29.71,West,270,5.1,6.9,62,0.00,,,0.00,WUHU216HW,2013-02-20 15:55:00,
2013-02-20 09:00:00,38.9,26.9,29.71,NW,315,4.7,8.7,62,0.00,,,0.00,WUHU216HW,2013-02-20 16:00:00,
2013-02-20 09:05:00,39.1,25.8,29.71,West,270,6.3,8.7,59,0.00,,,0.00,WUHU216HW,2013-02-20 16:05:00,
2013-02-20 09:10:00,39.2,24.8,29.71,WSW,248,7.4,9.4,56,0.00,,,0.00,WUHU216HW,2013-02-20 16:10:00,
2013-02-20 09:15:00,39.4,24.5,29.71,WNW,293,4.7,9.4,55,0.00,,,0.00,WUHU216HW,2013-02-20 16:15:00,
2013-02-20 09:20:00,39.6,23.8,29.71,South,180,7.4,7.6,53,0.00,,,0.00,WUHU216HW,2013-02-20 16:20:00,
2013-02-20 09:25:00,39.8,24.0,29.71,West,270,4.0,8.1,53,0.00,,,0.00,WUHU216HW,2013-02-20 16:25:00,
2013-02-20 09:30:00,39.6,24.2,29.72,WSW,248,2.2,8.1,54,0.00,,,0.00,WUHU216HW,2013-02-20 16:30:00,
2013-02-20 09:35:00,39.8,24.0,29.71,SW,225,5.6,8.5,53,0.00,,,0.00,WUHU216HW,2013-02-20 16:35:00,
2013-02-20 09:40:00,40.1,23.9,29.71,West,270,4.3,8.5,52,0.00,,,0.00,WUHU216HW,2013-02-20 16:40:00,
2013-02-20 09:45:00,40.5,24.1,29.71,SSW,203,6.9,8.5,52,0.00,,,0.00,WUHU216HW,2013-02-20 16:45:00,
2013-02-20 09:50:00,40.7,25.2,29.71,WSW,248,2.2,8.5,54,0.00,,,0.00,WUHU216HW,2013-02-20 16:50:00,
2013-02-20 09:55:00,40.5,25.0,29.71,SE,135,5.1,6.9,54,0.00,,,0.00,WUHU216HW,2013-02-20 16:55:00,
2013-02-20 10:00:00,40.3,25.7,29.71,SW,225,6.7,7.4,56,0.00,,,0.00,WUHU216HW,2013-02-20 17:00:00,
2013-02-20 10:05:00,40.0,25.4,29.71,WSW,248,4.7,7.4,56,0.00,,,0.00,WUHU216HW,2013-02-20 17:05:00,
2013-02-20 10:11:00,40.0,25.4,29.71,WSW,248,5.8,9.2,56,0.00,,,0.00,WUHU216HW,2013-02-20 17:11:00,
2013-02-20 10:16:00,40.0,25.0,29.71,WSW,248,5.6,9.2,55,0.00,,,0.00,WUHU216HW,2013-02-20 17:16:00,
2013-02-20 10:21:00,40.0,24.6,29.71,WSW,248,7.6,7.8,54,0.00,,,0.00,WUHU216HW,2013-02-20 17:21:00,
2013-02-20 10:26:00,40.1,24.8,29.71,WSW,248,6.9,7.6,54,0.00,,,0.00,WUHU216HW,2013-02-20 17:26:00,
2013-02-20 10:31:00,40.3,24.5,29.71,SE,135,4.0,7.6,53,0.00,,,0.00,WUHU216HW,2013-02-20 17:31:00,
2013-02-20 10:36:00,40.5,23.8,29.71,WSW,248,7.6,9.8,51,0.00,,,0.00,WUHU216HW,2013-02-20 17:36:00,
2013-02-20 10:41:00,40.7,23.0,29.71,SSW,203,10.5,13.4,49,0.03,,,0.00,WUHU216HW,2013-02-20 17:41:00,
2013-02-20 10:46:00,40.7,23.9,29.71,SSW,203,6.5,13.4,51,0.03,,,0.03,WUHU216HW,2013-02-20 17:46:00,
2013-02-20 10:51:00,40.9,24.5,29.71,SSE,158,4.7,12.3,52,0.03,,,0.03,WUHU216HW,2013-02-20 17:51:00,
2013-02-20 10:56:00,41.0,24.7,29.71,SSW,203,7.4,11.4,52,0.03,,,0.03,WUHU216HW,2013-02-20 17:56:00,
2013-02-20 11:00:00,41.2,24.9,29.70,SW,225,3.1,11.4,52,0.03,,,0.03,WUHU216HW,2013-02-20 18:00:00,
2013-02-20 11:05:00,41.4,24.6,29.70,ESE,113,4.0,7.4,51,0.03,,,0.03,WUHU216HW,2013-02-20 18:05:00,
2013-02-20 11:10:00,41.6,24.8,29.70,WSW,248,7.6,8.7,51,0.03,,,0.03,WUHU216HW,2013-02-20 18:10:00,
2013-02-20 11:15:00,41.6,24.8,29.70,West,270,2.7,8.7,51,0.03,,,0.03,WUHU216HW,2013-02-20 18:15:00,
2013-02-20 11:20:00,41.8,24.9,29.70,ESE,113,5.1,7.6,51,0.03,,,0.03,WUHU216HW,2013-02-20 18:20:00,
2013-02-20 11:25:00,41.9,25.6,29.69,SE,135,5.6,9.8,52,0.03,,,0.03,WUHU216HW,2013-02-20 18:25:00,
2013-02-20 11:30:00,42.1,26.2,29.69,WSW,248,8.7,10.3,53,0.03,,,0.03,WUHU216HW,2013-02-20 18:30:00,
2013-02-20 11:35:00,42.1,26.2,29.69,SW,225,4.0,12.8,53,0.03,,,0.03,WUHU216HW,2013-02-20 18:35:00,
2013-02-20 11:40:00,42.5,26.6,29.69,SW,225,6.3,12.8,53,0.00,,,0.03,WUHU216HW,2013-02-20 18:40:00,
2013-02-20 11:45:00,43.0,27.0,29.68,SSE,158,9.8,9.8,53,0.00,,,0.03,WUHU216HW,2013-02-20 18:45:00,
2013-02-20 11:50:00,43.2,27.2,29.68,WSW,248,7.6,12.5,53,0.20,,,0.24,WUHU216HW,2013-02-20 18:50:00,
2013-02-20 11:55:00,43.2,27.2,29.68,SE,135,4.0,12.5,53,0.20,,,0.24,WUHU216HW,2013-02-20 18:55:00,
2013-02-20 12:00:00,43.4,27.4,29.68,SSW,203,3.4,10.7,53,0.20,,,0.24,WUHU216HW,2013-02-20 19:00:00,
2013-02-20 12:05:00,43.4,27.4,29.67,SE,135,4.0,10.7,53,0.20,,,0.24,WUHU216HW,2013-02-20 19:05:00,
2013-02-20 12:10:00,43.9,28.7,29.67,WSW,248,4.3,9.2,55,0.20,,,0.24,WUHU216HW,2013-02-20 19:10:00,
2013-02-20 12:15:00,44.1,28.9,29.67,SE,135,8.7,15.7,55,0.20,,,0.24,WUHU216HW,2013-02-20 19:15:00,
2013-02-20 12:20:00,43.9,28.3,29.67,SW,225,8.5,15.7,54,0.20,,,0.24,WUHU216HW,2013-02-20 19:20:00,
2013-02-20 12:25:00,44.3,28.2,29.66,WSW,248,2.7,11.9,53,0.37,,,0.41,WUHU216HW,2013-02-20 19:25:00,
2013-02-20 12:30:00,44.6,28.5,29.66,WSW,248,6.7,14.1,53,0.37,,,0.41,WUHU216HW,2013-02-20 19:30:00,
2013-02-20 12:35:00,44.5,28.4,29.65,WSW,248,8.5,14.1,53,0.37,,,0.41,WUHU216HW,2013-02-20 19:35:00,
2013-02-20 12:40:00,44.6,28.5,29.65,SSE,158,4.5,11.2,53,0.37,,,0.41,WUHU216HW,2013-02-20 19:40:00,
2013-02-20 12:46:00,44.6,28.5,29.65,WNW,293,6.0,11.9,53,0.20,,,0.44,WUHU216HW,2013-02-20 19:46:00,
2013-02-20 12:51:00,44.3,28.2,29.65,East,90,2.5,13.9,53,0.20,,,0.44,WUHU216HW,2013-02-20 19:51:00,
2013-02-20 12:55:00,43.9,29.6,29.64,SW,225,5.8,13.9,57,0.20,,,0.44,WUHU216HW,2013-02-20 19:55:00,
2013-02-20 13:01:00,43.6,31.4,29.64,ESE,113,4.9,10.1,62,0.20,,,0.44,WUHU216HW,2013-02-20 20:01:00,
2013-02-20 13:05:00,43.2,31.1,29.63,SE,135,2.5,9.8,62,0.20,,,0.44,WUHU216HW,2013-02-20 20:05:00,
2013-02-20 13:10:00,42.8,31.5,29.63,SSW,203,13.9,13.9,64,0.20,,,0.44,WUHU216HW,2013-02-20 20:10:00,
2013-02-20 13:15:00,42.7,31.7,29.63,SE,135,4.5,13.9,65,0.20,,,0.44,WUHU216HW,2013-02-20 20:15:00,
2013-02-20 13:21:00,42.7,30.5,29.63,SSW,203,3.4,13.9,62,0.03,,,0.44,WUHU216HW,2013-02-20 20:21:00,
2013-02-20 13:26:00,42.8,32.7,29.63,South,180,6.3,11.4,67,0.03,,,0.44,WUHU216HW,2013-02-20 20:26:00,
2013-02-20 13:31:00,42.5,32.0,29.63,SW,225,6.7,8.5,66,0.03,,,0.44,WUHU216HW,2013-02-20 20:31:00,
2013-02-20 13:36:00,41.9,32.9,29.63,SSW,203,5.4,10.7,70,0.03,,,0.44,WUHU216HW,2013-02-20 20:36:00,
2013-02-20 13:41:00,41.4,32.4,29.62,WSW,248,4.0,10.7,70,0.03,,,0.44,WUHU216HW,2013-02-20 20:41:00,
2013-02-20 13:46:00,41.4,31.2,29.62,WSW,248,5.8,11.9,67,0.00,,,0.44,WUHU216HW,2013-02-20 20:46:00,
2013-02-20 13:51:00,41.6,31.4,29.62,SSE,158,4.7,11.9,67,0.00,,,0.44,WUHU216HW,2013-02-20 20:51:00,
2013-02-20 13:56:00,41.6,31.1,29.62,SSE,158,3.6,11.0,66,0.00,,,0.44,WUHU216HW,2013-02-20 20:56:00,
2013-02-20 14:01:00,41.6,31.4,29.62,WSW,248,7.4,11.0,67,0.00,,,0.44,WUHU216HW,2013-02-20 21:01:00,
2013-02-20 14:06:00,40.7,33.0,29.63,SW,225,13.9,15.7,74,0.00,,,0.44,WUHU216HW,2013-02-20 21:06:00,
2013-02-20 14:11:00,38.2,31.6,29.63,West,270,11.9,15.7,77,0.00,,,0.44,WUHU216HW,2013-02-20 21:11:00,
2013-02-20 14:16:00,36.2,30.6,29.64,West,270,9.2,13.9,80,0.00,,,0.44,WUHU216HW,2013-02-20 21:16:00,
2013-02-20 14:21:00,35.1,30.4,29.64,NW,315,7.4,14.5,83,0.00,,,0.44,WUHU216HW,2013-02-20 21:21:00,
2013-02-20 14:26:00,34.7,30.6,29.64,West,270,5.4,14.5,85,0.00,,,0.44,WUHU216HW,2013-02-20 21:26:00,
2013-02-20 14:31:00,34.6,30.4,29.65,WSW,248,6.3,13.0,85,0.00,,,0.44,WUHU216HW,2013-02-20 21:31:00,
2013-02-20 14:36:00,34.4,30.5,29.65,WSW,248,6.0,13.0,86,0.00,,,0.44,WUHU216HW,2013-02-20 21:36:00,
2013-02-20 14:41:00,34.4,30.5,29.65,SW,225,2.9,9.8,86,0.00,,,0.44,WUHU216HW,2013-02-20 21:41:00,
2013-02-20 14:46:00,33.8,29.7,29.66,NW,315,6.0,7.6,85,0.00,,,0.44,WUHU216HW,2013-02-20 21:46:00,
2013-02-20 14:51:00,32.9,28.9,29.66,NW,315,5.8,8.7,85,0.00,,,0.44,WUHU216HW,2013-02-20 21:51:00,
2013-02-20 14:56:00,32.4,28.7,29.66,NW,315,4.9,8.7,86,0.00,,,0.44,WUHU216HW,2013-02-20 21:56:00,
2013-02-20 15:01:00,32.0,28.4,29.66,WNW,293,4.3,7.6,86,0.00,,,0.44,WUHU216HW,2013-02-20 22:01:00,
2013-02-20 15:06:00,31.7,28.0,29.66,WNW,293,2.5,6.7,86,0.00,,,0.44,WUHU216HW,2013-02-20 22:06:00,
2013-02-20 15:11:00,31.5,27.8,29.66,WNW,293,3.4,6.7,86,0.00,,,0.44,WUHU216HW,2013-02-20 22:11:00,
2013-02-20 15:16:00,31.7,27.7,29.66,WNW,293,5.8,6.0,85,0.00,,,0.44,WUHU216HW,2013-02-20 22:16:00,
2013-02-20 15:21:00,31.7,27.2,29.66,WNW,293,7.2,10.7,83,0.00,,,0.44,WUHU216HW,2013-02-20 22:21:00,
2013-02-20 15:26:00,31.5,27.0,29.66,WNW,293,5.6,10.7,83,0.00,,,0.44,WUHU216HW,2013-02-20 22:26:00,
2013-02-20 15:31:00,31.3,27.1,29.67,WNW,293,1.6,9.6,84,0.00,,,0.44,WUHU216HW,2013-02-20 22:31:00,
2013-02-20 15:36:00,31.1,27.2,29.67,WNW,293,4.0,8.3,85,0.00,,,0.44,WUHU216HW,2013-02-20 22:36:00,
2013-02-20 15:41:00,31.1,27.2,29.67,WNW,293,0.7,8.7,85,0.00,,,0.44,WUHU216HW,2013-02-20 22:41:00,
2013-02-20 15:46:00,31.1,27.2,29.67,WNW,293,1.1,8.7,85,0.00,,,0.44,WUHU216HW,2013-02-20 22:46:00,
2013-02-20 15:51:00,31.0,27.0,29.67,WNW,293,3.6,3.8,85,0.00,,,0.44,WUHU216HW,2013-02-20 22:51:00,
2013-02-20 15:56:00,31.1,26.9,29.67,WNW,293,1.1,5.1,84,0.00,,,0.44,WUHU216HW,2013-02-20 22:56:00,
2013-02-20 16:01:00,31.3,27.1,29.67,WNW,293,3.1,5.1,84,0.00,,,0.44,WUHU216HW,2013-02-20 23:01:00,
2013-02-20 16:06:00,31.5,27.0,29.66,WNW,293,2.0,4.0,83,0.00,,,0.44,WUHU216HW,2013-02-20 23:06:00,
2013-02-20 16:11:00,31.5,26.6,29.67,WNW,293,1.1,6.7,82,0.00,,,0.44,WUHU216HW,2013-02-20 23:11:00,
2013-02-20 16:16:00,31.3,26.8,29.68,WNW,293,2.5,6.7,83,0.00,,,0.44,WUHU216HW,2013-02-20 23:16:00,
2013-02-20 16:21:00,31.0,26.5,29.68,WNW,293,0.0,2.9,83,0.00,,,0.44,WUHU216HW,2013-02-20 23:21:00,
2013-02-20 16:26:00,31.0,26.5,29.68,WNW,293,0.9,4.9,83,0.00,,,0.44,WUHU216HW,2013-02-20 23:26:00,
2013-02-20 16:31:00,31.0,26.5,29.68,WNW,293,0.0,4.9,83,0.00,,,0.44,WUHU216HW,2013-02-20 23:31:00,
2013-02-20 16:36:00,31.3,26.8,29.68,WNW,293,1.1,2.9,83,0.00,,,0.44,WUHU216HW,2013-02-20 23:36:00,
2013-02-20 16:41:00,31.3,26.5,29.68,WNW,293,1.1,2.9,82,0.00,,,0.44,WUHU216HW,2013-02-20 23:41:00,
2013-02-20 16:46:00,31.5,26.6,29.68,WNW,293,3.4,6.7,82,0.00,,,0.44,WUHU216HW,2013-02-20 23:46:00,
2013-02-20 16:51:00,31.7,25.9,29.69,WNW,293,2.0,7.4,79,0.00,,,0.44,WUHU216HW,2013-02-20 23:51:00,
2013-02-20 16:56:00,31.9,26.5,29.69,WNW,293,4.5,7.4,80,0.00,,,0.44,WUHU216HW,2013-02-20 23:56:00,
2013-02-20 17:01:00,31.9,26.5,29.69,WNW,293,1.8,6.3,80,0.00,,,0.44,WUHU216HW,2013-02-21 00:01:00,
2013-02-20 17:06:00,31.9,26.1,29.69,WNW,293,9.4,9.4,79,0.00,,,0.44,WUHU216HW,2013-02-21 00:06:00,
2013-02-20 17:11:00,32.0,26.3,29.69,WNW,293,3.1,9.4,79,0.00,,,0.44,WUHU216HW,2013-02-21 00:11:00,
2013-02-20 17:16:00,31.9,26.1,29.70,WNW,293,2.5,9.4,79,0.00,,,0.44,WUHU216HW,2013-02-21 00:16:00,
2013-02-20 17:21:00,31.9,26.1,29.70,WNW,293,4.3,5.4,79,0.00,,,0.44,WUHU216HW,2013-02-21 00:21:00,
2013-02-20 17:26:00,31.9,25.8,29.70,WNW,293,4.5,4.5,78,0.00,,,0.44,WUHU216HW,2013-02-21 00:26:00,
2013-02-20 17:31:00,31.9,25.8,29.70,WNW,293,2.0,5.8,78,0.00,,,0.44,WUHU216HW,2013-02-21 00:31:00,
2013-02-20 17:36:00,32.0,26.0,29.70,WNW,293,4.5,5.8,78,0.00,,,0.44,WUHU216HW,2013-02-21 00:36:00,
2013-02-20 17:41:00,32.0,26.0,29.71,WNW,293,3.8,6.9,78,0.00,,,0.44,WUHU216HW,2013-02-21 00:41:00,
2013-02-20 17:46:00,31.9,25.8,29.71,WNW,293,3.4,6.9,78,0.00,,,0.44,WUHU216HW,2013-02-21 00:46:00,
2013-02-20 17:51:00,31.7,25.7,29.71,WNW,293,5.1,7.6,78,0.00,,,0.44,WUHU216HW,2013-02-21 00:51:00,
2013-02-20 17:56:00,31.3,25.6,29.71,WNW,293,7.6,9.8,79,0.00,,,0.44,WUHU216HW,2013-02-21 00:56:00,
2013-02-20 18:01:00,31.1,25.4,29.71,WNW,293,4.9,9.8,79,0.00,,,0.44,WUHU216HW,2013-02-21 01:01:00,
2013-02-20 18:06:00,30.8,25.0,29.71,WNW,293,3.8,9.2,79,0.00,,,0.44,WUHU216HW,2013-02-21 01:06:00,
2013-02-20 18:11:00,30.6,25.2,29.71,WNW,293,4.0,6.0,80,0.00,,,0.44,WUHU216HW,2013-02-21 01:11:00,
2013-02-20 18:16:00,30.6,25.2,29.71,WNW,293,4.3,6.9,80,0.00,,,0.44,WUHU216HW,2013-02-21 01:16:00,
2013-02-20 18:21:00,30.6,25.2,29.71,WNW,293,3.4,6.9,80,0.00,,,0.44,WUHU216HW,2013-02-21 01:21:00,
2013-02-20 18:26:00,30.6,25.2,29.71,WNW,293,3.8,6.7,80,0.00,,,0.44,WUHU216HW,2013-02-21 01:26:00,
2013-02-20 18:31:00,30.6,25.2,29.72,WNW,293,2.5,5.8,80,0.00,,,0.44,WUHU216HW,2013-02-21 01:31:00,
2013-02-20 18:36:00,30.6,25.2,29.72,WNW,293,2.7,6.9,80,0.00,,,0.44,WUHU216HW,2013-02-21 01:36:00,
2013-02-20 18:41:00,30.8,25.0,29.72,WNW,293,1.8,6.9,79,0.00,,,0.44,WUHU216HW,2013-02-21 01:41:00,
2013-02-20 18:46:00,30.8,25.4,29.72,WNW,293,2.9,6.9,80,0.00,,,0.44,WUHU216HW,2013-02-21 01:46:00,
2013-02-20 18:51:00,30.6,24.8,29.73,WNW,293,1.8,6.3,79,0.00,,,0.44,WUHU216HW,2013-02-21 01:51:00,
2013-02-20 18:56:00,30.8,25.4,29.73,WNW,293,2.5,4.5,80,0.00,,,0.44,WUHU216HW,2013-02-21 01:56:00,
2013-02-20 19:01:00,30.8,25.0,29.73,WNW,293,3.4,4.5,79,0.00,,,0.44,WUHU216HW,2013-02-21 02:01:00,
2013-02-20 19:06:00,30.8,25.0,29.73,WNW,293,0.7,4.5,79,0.00,,,0.44,WUHU216HW,2013-02-21 02:06:00,
2013-02-20 19:11:00,30.6,25.2,29.73,WNW,293,1.3,3.6,80,0.00,,,0.44,WUHU216HW,2013-02-21 02:11:00,
2013-02-20 19:16:00,30.8,25.7,29.73,WNW,293,3.1,3.6,81,0.00,,,0.44,WUHU216HW,2013-02-21 02:16:00,
2013-02-20 19:21:00,30.8,25.4,29.73,WNW,293,0.4,3.6,80,0.00,,,0.44,WUHU216HW,2013-02-21 02:21:00,
2013-02-20 19:26:00,30.8,25.4,29.74,WNW,293,0.0,3.4,80,0.00,,,0.44,WUHU216HW,2013-02-21 02:26:00,
2013-02-20 19:31:00,30.8,25.7,29.74,WNW,293,1.1,2.7,81,0.00,,,0.44,WUHU216HW,2013-02-21 02:31:00,
2013-02-20 19:36:00,31.0,25.8,29.74,WNW,293,4.0,4.7,81,0.00,,,0.44,WUHU216HW,2013-02-21 02:36:00,
2013-02-20 19:41:00,31.0,26.1,29.74,WNW,293,2.0,4.7,82,0.00,,,0.44,WUHU216HW,2013-02-21 02:41:00,
2013-02-20 19:46:00,31.0,26.1,29.74,WNW,293,1.1,5.8,82,0.00,,,0.44,WUHU216HW,2013-02-21 02:46:00,
2013-02-20 19:51:00,31.0,26.7,29.74,WNW,293,3.4,8.1,84,0.00,,,0.44,WUHU216HW,2013-02-21 02:51:00,
2013-02-20 19:56:00,31.0,26.7,29.74,WNW,293,4.5,8.1,84,0.00,,,0.44,WUHU216HW,2013-02-21 02:56:00,
2013-02-20 20:01:00,31.0,27.0,29.75,WNW,293,3.4,6.3,85,0.00,,,0.44,WUHU216HW,2013-02-21 03:01:00,
2013-02-20 20:06:00,31.0,27.0,29.74,WNW,293,4.3,6.3,85,0.00,,,0.44,WUHU216HW,2013-02-21 03:06:00,
2013-02-20 20:11:00,31.0,27.3,29.74,WNW,293,5.1,6.7,86,0.00,,,0.44,WUHU216HW,2013-02-21 03:11:00,
2013-02-20 20:16:00,31.0,27.3,29.74,WNW,293,5.8,6.7,86,0.00,,,0.44,WUHU216HW,2013-02-21 03:16:00,
2013-02-20 20:21:00,30.8,27.4,29.75,WNW,293,4.5,6.9,87,0.00,,,0.44,WUHU216HW,2013-02-21 03:21:00,
2013-02-20 20:26:00,30.8,27.7,29.75,WNW,293,2.9,10.3,88,0.00,,,0.44,WUHU216HW,2013-02-21 03:26:00,
2013-02-20 20:31:00,30.8,27.7,29.75,WNW,293,3.8,10.3,88,0.00,,,0.44,WUHU216HW,2013-02-21 03:31:00,
2013-02-20 20:36:00,30.8,28.0,29.76,WNW,293,4.5,7.2,89,0.00,,,0.44,WUHU216HW,2013-02-21 03:36:00,
2013-02-20 20:41:00,30.8,28.0,29.76,WNW,293,4.0,7.8,89,0.00,,,0.44,WUHU216HW,2013-02-21 03:41:00,
2013-02-20 20:46:00,30.6,27.8,29.75,WNW,293,4.9,10.7,89,0.00,,,0.44,WUHU216HW,2013-02-21 03:46:00,
2013-02-20 20:51:00,30.6,27.8,29.76,WNW,293,6.5,10.7,89,0.00,,,0.44,WUHU216HW,2013-02-21 03:51:00,
2013-02-20 20:56:00,30.6,28.1,29.76,WNW,293,6.3,10.1,90,0.00,,,0.44,WUHU216HW,2013-02-21 03:56:00,
2013-02-20 21:01:00,30.6,28.1,29.76,WNW,293,4.3,10.1,90,0.00,,,0.44,WUHU216HW,2013-02-21 04:01:00,
2013-02-20 21:06:00,30.6,28.4,29.76,WNW,293,7.6,9.6,91,0.00,,,0.44,WUHU216HW,2013-02-21 04:06:00,
2013-02-20 21:11:00,30.6,28.4,29.76,WNW,293,3.1,8.9,91,0.00,,,0.44,WUHU216HW,2013-02-21 04:11:00,
2013-02-20 21:16:00,30.6,28.4,29.76,WNW,293,5.1,8.9,91,0.00,,,0.44,WUHU216HW,2013-02-21 04:16:00,
2013-02-20 21:21:00,30.6,28.4,29.76,WNW,293,5.1,8.5,91,0.00,,,0.44,WUHU216HW,2013-02-21 04:21:00,
2013-02-20 21:26:00,30.6,28.1,29.77,WNW,293,5.4,8.5,90,0.00,,,0.44,WUHU216HW,2013-02-21 04:26:00,
2013-02-20 21:31:00,30.6,28.1,29.77,WNW,293,3.6,7.6,90,0.00,,,0.44,WUHU216HW,2013-02-21 04:31:00,
2013-02-20 21:36:00,30.6,28.1,29.77,WNW,293,5.6,7.6,90,0.00,,,0.44,WUHU216HW,2013-02-21 04:36:00,
2013-02-20 21:40:00,30.6,28.1,29.77,WNW,293,2.5,7.6,90,0.00,,,0.44,WUHU216HW,2013-02-21 04:40:00,
2013-02-20 21:45:00,30.6,28.1,29.78,WNW,293,1.8,7.6,90,0.00,,,0.44,WUHU216HW,2013-02-21 04:45:00,
2013-02-20 21:50:00,30.6,28.1,29.78,WNW,293,3.8,5.6,90,0.00,,,0.44,WUHU216HW,2013-02-21 04:50:00,
2013-02-20 21:55:00,30.6,28.1,29.78,WNW,293,1.1,4.7,90,0.00,,,0.44,WUHU216HW,2013-02-21 04:55:00,
2013-02-20 22:00:00,30.6,28.1,29.78,WNW,293,1.6,4.7,90,0.00,,,0.44,WUHU216HW,2013-02-21 05:00:00,
2013-02-20 22:01:00,30.6,28.1,29.78,WNW,293,3.4,4.0,90,0.00,,,0.44,WUHU216HW,2013-02-21 05:01:00,
2013-02-20 22:06:00,30.4,27.6,29.78,WNW,293,0.7,3.6,89,0.00,,,0.44,WUHU216HW,2013-02-21 05:06:00,
2013-02-20 22:11:00,30.4,27.6,29.79,WNW,293,0.0,3.4,89,0.00,,,0.44,WUHU216HW,2013-02-21 05:11:00,
2013-02-20 22:16:00,30.2,27.7,29.79,WNW,293,0.0,1.3,90,0.00,,,0.44,WUHU216HW,2013-02-21 05:16:00,
2013-02-20 22:21:00,30.2,27.7,29.79,WNW,293,0.0,1.1,90,0.00,,,0.44,WUHU216HW,2013-02-21 05:21:00,
2013-02-20 22:26:00,30.2,27.5,29.79,WNW,293,1.8,1.8,89,0.00,,,0.44,WUHU216HW,2013-02-21 05:26:00,
2013-02-20 22:31:00,30.1,27.0,29.80,WNW,293,0.7,2.5,88,0.00,,,0.44,WUHU216HW,2013-02-21 05:31:00,
2013-02-20 22:36:00,29.9,27.1,29.80,WNW,293,2.5,2.5,89,0.00,,,0.44,WUHU216HW,2013-02-21 05:36:00,
2013-02-20 22:41:00,29.7,26.9,29.80,WNW,293,0.9,3.4,89,0.00,,,0.44,WUHU216HW,2013-02-21 05:41:00,
2013-02-20 22:46:00,29.5,26.7,29.80,WNW,293,0.7,3.6,89,0.00,,,0.44,WUHU216HW,2013-02-21 05:46:00,
2013-02-20 22:51:00,29.5,26.5,29.80,WNW,293,0.4,3.6,88,0.00,,,0.44,WUHU216HW,2013-02-21 05:51:00,
2013-02-20 22:56:00,29.5,26.5,29.80,WNW,293,0.2,4.0,88,0.00,,,0.44,WUHU216HW,2013-02-21 05:56:00,
2013-02-20 23:01:00,29.7,26.7,29.80,WNW,293,1.1,4.0,88,0.00,,,0.44,WUHU216HW,2013-02-21 06:01:00,
2013-02-20 23:06:00,29.9,26.5,29.80,WNW,293,0.2,2.5,87,0.00,,,0.44,WUHU216HW,2013-02-21 06:06:00,
2013-02-20 23:11:00,29.7,26.3,29.80,WNW,293,0.0,2.5,87,0.00,,,0.44,WUHU216HW,2013-02-21 06:11:00,
2013-02-20 23:16:00,29.5,26.1,29.80,WNW,293,0.4,1.3,87,0.00,,,0.44,WUHU216HW,2013-02-21 06:16:00,
2013-02-20 23:21:00,29.3,25.9,29.80,WNW,293,1.8,1.8,87,0.00,,,0.44,WUHU216HW,2013-02-21 06:21:00,
2013-02-20 23:26:00,29.2,25.5,29.80,WNW,293,0.9,1.8,86,0.00,,,0.44,WUHU216HW,2013-02-21 06:26:00,
2013-02-20 23:31:00,28.8,25.1,29.80,WNW,293,1.1,2.0,86,0.00,,,0.44,WUHU216HW,2013-02-21 06:31:00,
2013-02-20 23:36:00,29.2,22.9,29.81,WNW,293,5.1,5.1,77,0.00,,,0.44,WUHU216HW,2013-02-21 06:36:00,
2013-02-20 23:41:00,29.9,22.9,29.81,WNW,293,3.4,7.6,75,0.00,,,0.44,WUHU216HW,2013-02-21 06:41:00,
2013-02-20 23:46:00,30.1,22.8,29.81,WNW,293,5.4,7.6,74,0.00,,,0.44,WUHU216HW,2013-02-21 06:46:00,
2013-02-20 23:51:00,30.2,22.9,29.81,WNW,293,4.0,6.7,74,0.00,,,0.44,WUHU216HW,2013-02-21 06:51:00,
2013-02-20 23:56:00,29.9,22.9,29.81,WNW,293,4.0,6.7,75,0.00,,,0.44,WUHU216HW,2013-02-21 06:56:00,